Regional Weather Roundup
Issued by NWS

Home | Current Version | Previous Version | Graphics & Text | Print | Product List | Glossary On
Versions: 1 2 3 4 5 6 7 8 9 10 11 12 13 14 15 16 17 18 19 20 21 22 23 24 25 26 27 28 29 30 31 32 33 34 35 36 37 38 39 40 41 42 43 44 45 46 47 48 49 50
000
ASUS45 KPSR 230900
RWRAZ

PRELIMINARY ARIZONA REGIONAL HOURLY WEATHER ROUNDUP
NATIONAL WEATHER SERVICE PHOENIX AZ
200 AM MST TUE SEP 23 2014

NOTE: FAIR INDICATES FEW OR NO CLOUDS BELOW 12,000 FEET WITH NO
SIGNIFICANT WEATHER AND/OR OBSTRUCTIONS TO VISIBILITY.

AZZ001>003-036-231000-
NORTHWEST ARIZONA

CITY           SKY/WX    TMP DP  RH WIND       PRES   REMARKS
KINGMAN        CLEAR     62  35  36 SE14      30.10R
$$

AZZ004>008-015-016-018-231000-
NORTH CENTRAL ARIZONA

CITY           SKY/WX    TMP DP  RH WIND       PRES   REMARKS
GRAND CANYON   CLEAR     41  38  89 CALM      30.31F
PRESCOTT       CLEAR     56  38  50 S5        30.21S
FLAGSTAFF      CLEAR     46  42  86 CALM      30.33F
PAYSON         MOCLDY    63  55  77 CALM      30.23S
PAGE           CLEAR     67  43  41 SW5       30.13S
$$

AZZ009>014-017-231000-
NORTHEAST ARIZONA

CITY           SKY/WX    TMP DP  RH WIND       PRES   REMARKS
WINSLOW        NOT AVBL
SAINT JOHNS    MOCLDY    61  58  90 S6        30.24S
$$

AZZ023-231000-
GREATER PHOENIX AREA

CITY           SKY/WX    TMP DP  RH WIND       PRES   REMARKS
PHOENIX        CLEAR     84  56  38 E5        29.90S
LUKE AFB       CLEAR     76  49  37 N6        29.91S
DEER VALLEY    CLEAR     78  49  35 N5        29.94R
SCOTTSDALE     CLEAR     80  53  39 CALM      29.95R
MESA-GATEWAY   CLEAR    N/A N/A N/A SE5       29.95S
$$

AZZ027-028-231000-
SOUTHWEST MARICOPA COUNTY AND PINAL COUNTY

CITY           SKY/WX    TMP DP  RH WIND       PRES   REMARKS
CASA GRANDE    CLEAR     79  52  38 CALM      29.94S
$$

AZZ503-504-507>509-231000-
SOUTHEAST ARIZONA

CITY           SKY/WX    TMP DP  RH WIND       PRES   REMARKS
TUCSON         PTCLDY    78  61  55 S5        30.04S
DAVIS-MONTHAN  CLEAR     76  63  64 SE2       30.02S
NOGALES        CLEAR     68  64  87 E3        30.10F
SIERRA VISTA   PTCLDY    66  63  88 W5        30.17F
SAFFORD        CLEAR     74  63  68 E10       30.09S
$$

AZZ020-021-025-026-031-231000-
SOUTHWEST ARIZONA

CITY           SKY/WX    TMP DP  RH WIND       PRES   REMARKS
YUMA           CLEAR     84  65  52 CALM      29.86S
$$

CAZ031-033-041-043-047-048-061-231000-
SOUTHERN CALIFORNIA

CITY           SKY/WX    TMP DP  RH WIND       PRES   REMARKS
DOWNTOWN L.A.  CLEAR     66  61  84 CALM      29.95S
L.A. AIRPORT   CLEAR     67  61  82 E3        29.95S
SAN DIEGO      MOCLDY    69  63  81 N5        29.97R
BURBANK        CLEAR     66  60  81 CALM      29.96S
ONTARIO        CLEAR     68  59  73 W3        29.97R
RIVERSIDE      CLEAR     67  60  78 CALM      29.97R
PALM SPRINGS   CLEAR     82  44  26 NW6       29.90F
EL CENTRO NAS  CLEAR     80  57  45 CALM      29.84R
IMPERIAL       CLEAR     83  59  44 CALM      29.84R
BLYTHE         CLEAR     84  54  35 S3        29.88S
$$

NVZ020-UTZ003-231000-
SOUTHERN NEVADA-UTAH

CITY           SKY/WX    TMP DP  RH WIND       PRES   REMARKS
LAS VEGAS      NOT AVBL
SALT LAKE CITY PTCLDY    61  52  72 SE6       30.11F
$$

NMZ009-TXZ055-231000-
NEW MEXICO-WEST TEXAS

CITY           SKY/WX    TMP DP  RH WIND       PRES   REMARKS
ALBUQUERQUE    PTCLDY    61  57  87 SE7       30.26S
EL PASO        MOCLDY    68  64  87 CALM      30.19S
$$


........................KEY........................
SKY/WX - SKY CONDITION/WEATHER
TMP    - TEMPERATURE IN FAHRENHEIT
DP     - DEW POINT IN FAHRENHEIT
RH     - RELATIVE HUMIDITY IN PERCENT
WIND   - DIRECTION AND SPEED IN MILES PER HOUR (MPH)
VRB    - VARIABLE WIND DIRECTION
PRES   - MEAN SEA LEVEL PRESSURE IN INCHES OF MERCURY
         F - FALLING PRESSURE   R - RISING PRESSURE
         S - STEADY PRESSURE
VSB    - VISIBILITY IN MILES
HX     - HEAT INDEX IN FAHRENHEIT
WCI    - WIND CHILL INDEX IN FAHRENHEIT
TC     - TEMPERATURE IN CELSIUS WHICH IS ALSO KNOWN AS
         TEMPERATURE IN CENTIGRADE
AFB    - AIR FORCE BASE
         LUKE AFB IS LUKE AIR FORCE BASE
         DAVIS-MONTHAN IS DAVIS-MONTHAN AIR FORCE BASE
NAS    - NAVAL AIR STATION
         EL CENTRO NAS IS EL CENTRO NAVAL AIR STATION
N/A    - NOT AVAILABLE


USA.gov is the U.S. government's official web portal to all federal, state and local government web resources and services.